CYCYCYIO

Guest
Details From CYCY - CLYDE RIVER
To CYIO - POND INLET
Flight Number -
Tags generated
Created
Modified
Stats Distance 223 nm / 413 km
Max Altitude 8,800 ft / 2,682 m
Waypoints 4
Social Downloads 0
Likes 0
Share VATSIM

Download

Looking for another format? Having issues loading an existing format? Contact us
Advertisement - Login to hide

Notes

Basic altitude profile: - Ascent Rate: 2500ft/min - Ascent Speed: 250kts - Cruise Altitude: 35000ft - Cruise Speed: 420kts - Descent Rate: 1500ft/min - Descent Speed: 250kts Options: - Use NATs: yes - Use PACOTS: yes - Use low airways: yes - Use high airways: yes

Route

CYCY YCY RR30 YIO CYIO

ID Type Via Altitude Latitude Longitude Leg Dist Tot Dist Heading (true) Name
O CYCY APT - 0 ft / 0 m 70.48611˚ -68.51653˚ - 0 nm - CLYDE RIVER
YCY NDB - 0 ft / 0 m 70.48517˚ -68.52694˚ 0 nm 0 nm 255° / 255° CLYDE RIVER NDB
YIO NDB RR30 (AWY-LO) 8,800 ft / 2,682 m 72.69311˚ -77.95097˚ 222 nm 222 nm 311° / 302° POND INLET NDB
O CYIO APT - 0 ft / 0 m 72.68333˚ -77.96666˚ 0 nm 223 nm 206° / 206° POND INLET

Altitude Profile

Advertisement - Login to hide

Weather


0- 5 10 15 20 25 30 35+ Temperature / ° C

Clouds and Precipitation
Forecast for 2018-05-27 12:00 UTC. Updated an hour ago

Ground ~20,000 ft ~40,000 ft Winds

CYCY

Details ICAO CYCY (YCY)
Name CLYDE RIVER
Region Canada
Timezone America/Iqaluit (UTC-4.0)
Stats Elevation 87 ft / 27 m (AMSL)
Location 70.486114° -68.516529°
Runways 1
Magnetic Variation 35.405° W

METAR

CYCY 271000Z AUTO 23003KT 9SM CLR M05/M09 A2985 RMK SLP113

Decode

TAF

TAF AMD TAF AMD CYCY 270714Z 2707/2719 24012KT P6SM SCT020 TEMPO 2707/2719 BKN020 RMK FCST BASED ON AUTO OBS. NXT FCST BY 271300Z

Decode

Departure Runways

ID Width Length Bearing (true) Bearing (mag) Surface Threshold Offset Overrun Length
02T 100 ft / 30 m 3,623 ft / 1,104 m 17.95° 53.36° Gravel 0 ft / 0 m 0 ft / 0 m
20T 100 ft / 30 m 3,623 ft / 1,104 m 197.96° 233.37° Gravel 0 ft / 0 m 0 ft / 0 m

CYIO

Details ICAO CYIO (YIO)
Name POND INLET
Region Canada
Timezone America/Iqaluit (UTC-4.0)
Stats Elevation 181 ft / 55 m (AMSL)
Location 72.683334° -77.966664°
Runways 1
Magnetic Variation 36.430° W

METAR

CYIO 271006Z AUTO 25004KT 9SM -SN FEW012 BKN024 OVC032 M07/M08 A2982 RMK SLP108

Decode

TAF

TAF CYIO 270638Z 2707/2719 22006KT P6SM BKN030 TEMPO 2707/2719 1SM -SN OVC012 RMK FCST BASED ON AUTO OBS. NXT FCST BY 271300Z

Decode

Destination Runways

ID Width Length Bearing (true) Bearing (mag) Surface Threshold Offset Overrun Length
02T 100 ft / 30 m 3,986 ft / 1,215 m 22.99° 59.42° Gravel 0 ft / 0 m 0 ft / 0 m
20T 100 ft / 30 m 3,986 ft / 1,215 m 203.00° 239.43° Gravel 0 ft / 0 m 0 ft / 0 m